Estación de San Rafael

Ultimos registro cada 15 minutos 24
Estación Fecha / Hora Temperatura Humedad Lluvia Velocidad Dirección Radiación Presion
24 San Rafael 04-05-2026 05:45 7,1 99,3 0 0 59 0,6 997,3
23 San Rafael 04-05-2026 05:30 7,2 99,3 0 0 59 0,6 997,3
22 San Rafael 04-05-2026 05:15 8 99,1 0 0 59 0,6 997,3
21 San Rafael 04-05-2026 05:00 8,7 99,3 0 0 59 0,6 997,4
20 San Rafael 04-05-2026 04:45 8,9 99,1 0 0 59 0,6 997,3
19 San Rafael 04-05-2026 04:30 9,2 99,2 0 0 59 0,6 997,3
18 San Rafael 04-05-2026 04:15 9,4 98,9 0 0 59 0,6 997,5
17 San Rafael 04-05-2026 04:00 9,6 98,8 0 0 59 0,6 997,6
16 San Rafael 04-05-2026 03:45 9,8 98,9 0 0 59 0,6 997,5
15 San Rafael 04-05-2026 03:30 10 98,7 0 0 59 0,6 997,6
14 San Rafael 04-05-2026 03:15 10,1 98,7 0 0 59 0,6 997,7
13 San Rafael 04-05-2026 03:00 10,2 98,7 0 0 59 0,6 997,9
12 San Rafael 04-05-2026 02:45 10,4 98,6 0 0 59 0,6 998
11 San Rafael 04-05-2026 02:30 10,3 98,7 0 0 59 0,6 998,1
10 San Rafael 04-05-2026 02:15 10,4 98,5 0 0 59 0,6 998,4
9 San Rafael 04-05-2026 02:00 10,2 98,3 0 0 59 0,6 998,4
8 San Rafael 04-05-2026 01:45 10,3 98,2 0 0 59 0,6 998,6
7 San Rafael 04-05-2026 01:30 10,4 98,1 0 0 59 0,6 998,4
6 San Rafael 04-05-2026 01:15 10,4 98,1 0 0 59 0,6 998,6
5 San Rafael 04-05-2026 01:00 10,5 98 0 0 59 0,6 998,6
4 San Rafael 04-05-2026 00:45 10,5 97,9 0 0 59 0,6 998,4
3 San Rafael 04-05-2026 00:30 10,5 97,9 0 0 59 0,6 998,7
2 San Rafael 04-05-2026 00:15 10,6 97,6 0 0 59 0,6 999
1 San Rafael 04-05-2026 00:00 10,8 97,5 0 0 59 0,6 999,3